This is the latest recevied weather packets stored in our database for station/object W9WRP. If no packets are shown the sender has not sent any weather packets the latest 10 day(s).
| Time | Temp. | Humidity | Pressure | Rain* | Wind** | Luminosity | Snow |
|---|---|---|---|---|---|---|---|
| 1787797197 | 41.67° C | 15% | 1011 hPa | 0 mm | - | 0 W/m² | - |
| 1787796893 | 41.67° C | 14% | 1011.1 hPa | 0 mm | - | 0 W/m² | - |
| 1787796592 | 41.67° C | 14% | 1010.8 hPa | 0 mm | - | 1 W/m² | - |
| 1787796288 | 42.22° C | 14% | 1011 hPa | 0 mm | - | 2 W/m² | - |
| 1787795986 | 42.22° C | 14% | 1011.1 hPa | 0 mm | - | 4 W/m² | - |
| 1787795680 | 42.78° C | 14% | 1011.1 hPa | 0 mm | - | 6 W/m² | - |
| 1787795376 | 42.78° C | 14% | 1011.1 hPa | 0 mm | - | 9 W/m² | - |
| 1787795074 | 42.78° C | 14% | 1010.8 hPa | 0 mm | - | 12 W/m² | - |
| 1787794769 | 42.78° C | 14% | 1010.8 hPa | 0 mm | - | 15 W/m² | - |
| 1787794464 | 42.78° C | 14% | 1010.8 hPa | 0 mm | - | 20 W/m² | - |
| 1787794159 | 42.78° C | 14% | 1011 hPa | 0 mm | - | 24 W/m² | - |
| 1787793856 | 43.33° C | 14% | 1010.8 hPa | 0 mm | - | 26 W/m² | - |
| 1787793550 | 43.33° C | 14% | 1010.6 hPa | 0 mm | - | 25 W/m² | - |
| 1787793245 | 43.33° C | 14% | 1011 hPa | 0 mm | - | 27 W/m² | - |
| 1787792941 | 43.89° C | 14% | 1010.7 hPa | 0 mm | - | 30 W/m² | - |
| 1787792636 | 43.89° C | 14% | 1010.5 hPa | 0 mm | - | 33 W/m² | - |
| 1787792333 | 43.89° C | 14% | 1010.5 hPa | 0 mm | - | 35 W/m² | - |
| 1787792032 | 43.89° C | 13% | 1010.6 hPa | 0 mm | - | 36 W/m² | - |
| 1787791730 | 44.44° C | 13% | 1010.8 hPa | 0 mm | - | 35 W/m² | - |
| 1787791425 | 45° C | 13% | 1010.5 hPa | 0 mm | - | 43 W/m² | - |
| 1787791121 | 45.56° C | 12% | 1010.5 hPa | 0 mm | - | 82 W/m² | - |
| 1787790811 | 45.56° C | 12% | 1010.8 hPa | 0 mm | - | 86 W/m² | - |
| 1787790511 | 45.56° C | 13% | 1010.7 hPa | 0 mm | - | 78 W/m² | - |
| 1787790206 | 46.11° C | 12% | 1010.5 hPa | 0 mm | - | 112 W/m² | - |
| 1787789902 | 45.56° C | 13% | 1010.6 hPa | 0 mm | - | 147 W/m² | - |
* Rain latest hour (hover to see other rain measurements)
** Current wind speed in m/s (hover to see current wind gust speed)